Location: Lecco
(45.8566°N, 9.3977°E)
Time: 09:14:25
(UTC+02:00)

S-56A Canister/Altair - Pass Details

Date: 31 July 2019
Orbit: 633 x 2499 km, 38.9° (Epoch: 25 August)

Event Time Altitude Azimuth Distance (km) Brightness Sun altitude
Rises 08:28:33 0° 268° (W) 4,704 11.0 23.3°
Reaches altitude 10° 08:31:19 10° 265° (W) 3,943 10.7 23.8°
Maximum altitude 08:42:03 60° 189° (S) 2,383 10.3 25.7°
Drops below altitude 10° 08:56:21 10° 115° (ESE) 5,134 13.0 28.1°
Sets 09:00:32 0° 113° (ESE) 6,173 13.2 28.9°
